TimeCST,TemperatureF,Dew PointF,Humidity,Sea Level PressureIn,VisibilityMPH,Wind Direction,Wind SpeedMPH,Gust SpeedMPH,PrecipitationIn,Events,Conditions,WindDirDegrees,DateUTC
12:15 AM,24.8,10.4,54,30.20,10.0,North,13.8,20.7,N/A,,Overcast,350,2013-02-15 06:15:00
12:35 AM,24.8,12.2,59,30.20,10.0,NNW,16.1,21.9,N/A,,Overcast,340,2013-02-15 06:35:00
12:55 AM,23.0,10.4,59,30.21,10.0,NNW,15.0,20.7,N/A,,Mostly Cloudy,340,2013-02-15 06:55:00
1:15 AM,21.2,12.2,68,30.22,10.0,NNW,13.8,-,N/A,,Scattered Clouds,330,2013-02-15 07:15:00
1:35 AM,21.2,10.4,63,30.22,10.0,NNW,13.8,18.4,N/A,,Clear,330,2013-02-15 07:35:00
1:55 AM,21.2,10.4,63,30.23,10.0,NNW,11.5,-,N/A,,Clear,330,2013-02-15 07:55:00
2:15 AM,19.4,10.4,68,30.23,10.0,NW,10.4,-,N/A,,Clear,320,2013-02-15 08:15:00
2:55 AM,19.4,10.4,68,30.24,10.0,NW,10.4,-,N/A,,Clear,320,2013-02-15 08:55:00
3:15 AM,19.4,10.4,68,30.25,10.0,NW,10.4,-,N/A,,Clear,320,2013-02-15 09:15:00
3:35 AM,19.4,10.4,68,30.25,10.0,NW,10.4,-,N/A,,Clear,320,2013-02-15 09:35:00
3:55 AM,17.6,10.4,73,30.25,10.0,NW,10.4,-,N/A,,Clear,310,2013-02-15 09:55:00
4:15 AM,17.6,10.4,73,30.26,10.0,WNW,8.1,-,N/A,,Clear,300,2013-02-15 10:15:00
4:35 AM,17.6,8.6,68,30.26,10.0,NW,9.2,-,N/A,,Clear,310,2013-02-15 10:35:00
4:55 AM,17.6,8.6,68,30.27,10.0,NW,10.4,-,N/A,,Clear,310,2013-02-15 10:55:00
5:15 AM,17.6,8.6,68,30.27,10.0,NW,9.2,-,N/A,,Clear,310,2013-02-15 11:15:00
5:35 AM,15.8,8.6,73,30.28,10.0,NW,8.1,-,N/A,,Clear,310,2013-02-15 11:35:00
5:55 AM,15.8,8.6,73,30.27,10.0,NW,8.1,-,N/A,,Clear,310,2013-02-15 11:55:00
6:15 AM,15.8,8.6,73,30.27,10.0,WNW,10.4,-,N/A,,Clear,300,2013-02-15 12:15:00
6:35 AM,15.8,8.6,73,30.28,10.0,WNW,9.2,-,N/A,,Clear,300,2013-02-15 12:35:00
6:55 AM,15.8,6.8,68,30.28,10.0,WNW,12.7,-,N/A,,Clear,300,2013-02-15 12:55:00
7:15 AM,15.8,6.8,68,30.28,10.0,NW,9.2,-,N/A,,Clear,310,2013-02-15 13:15:00
7:35 AM,15.8,8.6,73,30.29,10.0,NW,11.5,-,N/A,,Clear,310,2013-02-15 13:35:00
7:55 AM,17.6,8.6,68,30.29,10.0,WNW,12.7,-,N/A,,Clear,300,2013-02-15 13:55:00
8:15 AM,17.6,8.6,68,30.30,10.0,WNW,10.4,-,N/A,,Clear,290,2013-02-15 14:15:00
8:35 AM,19.4,10.4,68,30.31,10.0,WNW,12.7,-,N/A,,Clear,300,2013-02-15 14:35:00
8:55 AM,19.4,10.4,68,30.31,10.0,WNW,11.5,-,N/A,,Clear,290,2013-02-15 14:55:00
9:15 AM,21.2,10.4,63,30.31,10.0,WNW,12.7,-,N/A,,Clear,300,2013-02-15 15:15:00
9:35 AM,23.0,10.4,59,30.31,10.0,NW,16.1,-,N/A,,Clear,310,2013-02-15 15:35:00
9:55 AM,23.0,10.4,59,30.32,10.0,NW,17.3,23.0,N/A,,Clear,310,2013-02-15 15:55:00
10:15 AM,23.0,10.4,59,30.31,10.0,NW,16.1,-,N/A,,Clear,320,2013-02-15 16:15:00
10:35 AM,24.8,10.4,54,30.31,10.0,WNW,17.3,24.2,N/A,,Clear,300,2013-02-15 16:35:00
10:55 AM,24.8,10.4,54,30.31,10.0,WNW,16.1,21.9,N/A,,Clear,300,2013-02-15 16:55:00
11:15 AM,24.8,10.4,54,30.31,10.0,NW,13.8,23.0,N/A,,Scattered Clouds,310,2013-02-15 17:15:00
11:55 AM,24.8,10.4,54,30.31,10.0,NNW,15.0,-,N/A,,Overcast,330,2013-02-15 17:55:00
12:15 PM,24.8,10.4,54,30.31,10.0,NW,12.7,18.4,N/A,,Overcast,310,2013-02-15 18:15:00
12:35 PM,26.6,12.2,55,30.30,10.0,WNW,16.1,-,N/A,,Overcast,300,2013-02-15 18:35:00
12:55 PM,26.6,12.2,55,30.30,10.0,NW,11.5,18.4,N/A,,Overcast,320,2013-02-15 18:55:00
1:15 PM,26.6,10.4,51,30.29,10.0,NW,17.3,20.7,N/A,,Overcast,320,2013-02-15 19:15:00
1:35 PM,28.4,10.4,47,30.28,10.0,NW,12.7,-,N/A,,Overcast,310,2013-02-15 19:35:00
1:55 PM,28.4,10.4,47,30.28,10.0,NNW,13.8,-,N/A,,Overcast,340,2013-02-15 19:55:00
2:15 PM,28.4,10.4,47,30.28,10.0,NNW,12.7,18.4,N/A,,Mostly Cloudy,330,2013-02-15 20:15:00
2:35 PM,28.4,8.6,43,30.27,10.0,NNW,13.8,21.9,N/A,,Mostly Cloudy,330,2013-02-15 20:35:00
2:55 PM,28.4,10.4,47,30.28,10.0,NNW,13.8,-,N/A,,Mostly Cloudy,330,2013-02-15 20:55:00
3:15 PM,28.4,10.4,47,30.28,10.0,NW,13.8,-,N/A,,Mostly Cloudy,320,2013-02-15 21:15:00
3:35 PM,28.4,8.6,43,30.28,10.0,NNW,11.5,18.4,N/A,,Overcast,330,2013-02-15 21:35:00
3:55 PM,28.4,8.6,43,30.28,10.0,NW,15.0,-,N/A,,Overcast,320,2013-02-15 21:55:00
4:15 PM,28.4,8.6,43,30.28,10.0,North,10.4,-,N/A,,Mostly Cloudy,350,2013-02-15 22:15:00
4:35 PM,28.4,10.4,47,30.28,10.0,NNW,12.7,18.4,N/A,,Overcast,330,2013-02-15 22:35:00
4:55 PM,28.4,10.4,47,30.28,10.0,NW,12.7,-,N/A,,Overcast,320,2013-02-15 22:55:00
5:15 PM,28.4,10.4,47,30.28,10.0,NNW,10.4,17.3,N/A,,Overcast,340,2013-02-15 23:15:00
5:35 PM,26.6,12.2,55,30.28,10.0,North,10.4,-,N/A,,Overcast,350,2013-02-15 23:35:00
6:15 PM,24.8,12.2,59,30.29,10.0,North,10.4,-,N/A,,Scattered Clouds,350,2013-02-16 00:15:00
6:35 PM,24.8,12.2,59,30.28,10.0,North,6.9,-,N/A,,Scattered Clouds,350,2013-02-16 00:35:00
6:55 PM,23.0,14.0,68,30.29,10.0,North,5.8,-,N/A,,Clear,360,2013-02-16 00:55:00
7:15 PM,23.0,14.0,68,30.29,10.0,NNW,5.8,-,N/A,,Clear,340,2013-02-16 01:15:00
7:35 PM,21.2,14.0,74,30.29,10.0,NNW,4.6,-,N/A,,Clear,340,2013-02-16 01:35:00
7:55 PM,21.2,12.2,68,30.29,10.0,NNW,6.9,-,N/A,,Clear,330,2013-02-16 01:55:00
8:15 PM,21.2,12.2,68,30.29,10.0,NNW,6.9,-,N/A,,Clear,340,2013-02-16 02:15:00
8:35 PM,21.2,14.0,74,30.29,10.0,NNW,5.8,-,N/A,,Clear,340,2013-02-16 02:35:00
8:55 PM,21.2,14.0,74,30.29,10.0,NNW,5.8,-,N/A,,Clear,340,2013-02-16 02:55:00
9:15 PM,21.2,14.0,74,30.29,10.0,North,8.1,-,N/A,,Clear,350,2013-02-16 03:15:00
9:35 PM,21.2,12.2,68,30.29,10.0,North,8.1,-,N/A,,Clear,350,2013-02-16 03:35:00
9:55 PM,21.2,12.2,68,30.29,10.0,North,10.4,-,N/A,,Clear,350,2013-02-16 03:55:00
10:15 PM,19.4,12.2,74,30.30,10.0,North,5.8,-,N/A,,Clear,350,2013-02-16 04:15:00
10:35 PM,19.4,12.2,74,30.29,10.0,North,6.9,-,N/A,,Clear,350,2013-02-16 04:35:00
10:55 PM,17.6,12.2,79,30.29,10.0,North,5.8,-,N/A,,Clear,350,2013-02-16 04:55:00
11:15 PM,17.6,12.2,79,30.29,10.0,NNW,4.6,-,N/A,,Clear,340,2013-02-16 05:15:00
11:35 PM,17.6,12.2,79,30.29,10.0,NNW,5.8,-,N/A,,Clear,340,2013-02-16 05:35:00
11:55 PM,15.8,10.4,79,30.28,10.0,NNW,4.6,-,N/A,,Clear,330,2013-02-16 05:55:00